Home > Weather > Harrisburg > Past weeks

Flag for U.S.A. Weather for the Past 2 Weeks in Harrisburg, Pennsylvania, U.S.A.

Now
32 °F

Light snow. Ice fog.


Feels Like: 32 °F
Forecast: 26 / 34 °F
Wind: No wind

Location: Capital City Airport

Current Time: Feb 9, 2016 at 8:10:52 PM

Latest Report: Feb 9, 2016 at 6:56 PM


Visibility: 1 mi

Pressure: 29.62 "Hg

Humidity: 85%

Dew point: 28 °F

Location of HarrisburgLocation

Historic Weather in Harrisburg — Graph

°F

Harrisburg Temperature Yesterday

Maximum temperature yesterday: 43 °F (at 2:56 PM)
Minimum temperature yesterday: 24 °F (at 6:56 AM)
Average temperature yesterday: 34 °F

High & Low Weather Summary for the Past Weeks

 TemperatureHumidityPressure
High50 °F (Jan 31, 2:56 PM)97% (Feb 3, 9:56 AM)30.44 "Hg (Feb 3, 9:56 AM)
Low13 °F (Jan 28, 5:56 AM)31% (Feb 7, 2:56 PM)29.54 "Hg (Jan 29, 4:56 AM)
Average34 °F66%30.00 "Hg
* Reported Jan 25 6:56 PM — Feb 9 6:56 PM, Harrisburg, Weather by CustomWeather, © 2016

Note: Actual official high and low records may vary slightly from our data, if they occured in-between our weather recording intervals... More about our weather records

Advertising

Harrisburg Weather History for the Previous 24 Hours

 ConditionsComfort  
Time TempWeatherWind HumidityBarometerVisibility
6:56 PM
Tue, Feb 9
32 °FLight snow. Ice fog.No wind85%29.62 "Hg1 mi
5:56 PM32 °FLight snow. Ice fog.No wind85%29.61 "Hg1 mi
4:56 PM32 °FLight snow. Ice fog.No wind88%29.59 "Hg1 mi
3:56 PM32 °FLight snow. Ice fog.No wind85%29.57 "Hg1 mi
2:56 PM32 °FSnow. Fog.3 mph85%29.55 "Hg1 mi
1:56 PM32 °FSnow. Mostly cloudy.3 mph82%29.55 "Hg1 mi
1:03 PM31 °FLight snow. Ice fog.No wind92%29.55 "Hg1 mi
12:56 PM31 °FSnow. Ice fog.No wind92%29.56 "Hg1 mi
11:56 AM31 °FHeavy snow. Ice fog.6 mph89%29.58 "Hg0 mi
10:56 AM31 °FSnow. Ice fog.7 mph85%29.60 "Hg0 mi
9:56 AM31 °FSnow. Ice fog.8 mph85%29.61 "Hg1 mi
8:56 AM32 °FSnow. Fog.8 mph85%29.62 "Hg1 mi
7:56 AM31 °FLight snow. Ice fog.8 mph89%29.61 "Hg1 mi
7:03 AM31 °FLight snow. Ice fog.9 mph89%29.59 "Hg1 mi
5:56 AM32 °FLight snow. Ice fog.10 mph85%29.60 "Hg5 mi
4:56 AM32 °FLight snow. Ice fog.9 mph85%29.59 "Hg4 mi
3:56 AM33 °FLight snow. Fog.12 mph85%29.60 "Hg3 mi
2:56 AM33 °FLow clouds.15 mph85%29.62 "Hg9 mi
1:56 AM34 °FMostly cloudy.12 mph85%29.63 "Hg8 mi
12:56 AM34 °FLight snow. Fog.9 mph88%29.65 "Hg2 mi
11:56 PM
Mon, Feb 8
34 °FLight snow. Fog.9 mph88%29.66 "Hg2 mi
10:56 PM34 °FLight snow. Fog.7 mph88%29.68 "Hg1 mi
9:56 PM34 °FLight snow. Fog.7 mph88%29.70 "Hg2 mi
8:56 PM36 °FLight rain. Overcast.10 mph82%29.71 "Hg7 mi
Weather by CustomWeather, © 2016

See weather overviewHow to use our weather pages